Theta_e
324 324 323 322 322 321 322 322 321 321 321 318 315 315 315 317 317 318 319 321 322 323 324 322 323 324 325 324 323 323 323 323 324 325 325 325 326 327 327 326 326 326 326 326 327 326 326 328 324 321 321 319 319 320 319 317 316 314 314 313 312 312 311
324 323 323 322 322 321 322 322 322 321 321 320 318 315 314 315 316 317 317 318 320 322 323 322 322 323 323 324 324 323 323 323 323 324 325 324 323 325 326 325 324 324 323 323 323 322 322 324 324 322 321 320 319 319 319 318 317 316 314 313 313 313 312
322 322 322 322 322 322 322 322 322 321 321 322 321 317 314 314 315 317 316 316 318 319 321 322 322 322 322 322 323 323 323 323 323 323 324 323 323 323 323 324 324 323 323 324 323 322 321 321 321 319 318 319 319 319 318 318 317 316 315 315 313 313 313
323 322 322 322 322 322 322 322 323 322 321 322 322 320 318 315 314 316 316 316 317 317 318 319 320 321 322 322 323 323 323 323 323 323 323 323 323 323 322 323 323 323 323 324 323 322 322 322 322 320 317 316 318 318 318 318 317 317 316 315 314 314 314
323 322 322 322 322 322 323 323 322 323 322 322 321 322 322 319 315 315 316 315 316 317 317 318 319 320 322 323 322 322 323 322 322 322 323 323 322 322 322 322 322 322 322 323 321 320 321 321 323 323 319 318 319 319 317 318 317 317 317 315 314 314 314
324 322 322 322 322 321 323 323 322 322 322 322 321 322 322 322 318 316 316 315 315 317 318 318 318 319 320 321 321 322 321 321 322 322 322 322 322 322 322 322 322 322 322 322 321 320 321 320 321 323 321 319 320 319 317 317 318 318 317 316 315 313 313
325 323 322 321 322 321 321 322 323 322 322 321 322 321 321 322 320 317 317 316 315 316 318 318 317 318 319 319 320 321 322 322 322 322 322 322 322 322 322 322 321 322 322 322 321 320 320 320 320 322 322 321 320 318 316 316 316 317 317 316 315 312 311
326 324 322 322 322 322 322 322 322 322 323 322 322 322 321 321 320 319 318 317 316 316 317 317 316 316 317 318 319 320 321 322 322 322 322 322 322 322 322 321 321 321 321 321 320 320 320 319 319 319 320 323 323 320 319 317 315 314 315 315 314 313 311
327 325 324 323 322 321 321 322 322 322 322 323 322 322 322 321 320 320 320 319 317 316 316 316 316 316 315 315 316 317 318 320 320 321 321 321 322 322 322 322 322 321 321 320 319 319 319 319 318 317 317 319 321 322 322 321 320 317 315 315 314 313 311
328 326 325 324 323 322 321 322 322 323 322 322 322 322 322 322 321 321 321 320 319 317 316 315 315 315 314 314 314 314 314 315 316 317 319 320 321 321 321 321 321 320 320 320 320 320 319 318 317 316 316 314 317 322 323 322 322 319 316 315 315 314 312
329 328 327 326 326 324 323 321 321 322 322 322 323 323 323 323 322 322 321 321 320 319 318 317 316 315 313 313 314 314 314 313 312 314 315 316 318 318 319 318 318 317 318 319 320 319 318 317 317 316 315 314 315 318 320 321 321 317 315 315 314 314 312
331 330 328 328 327 326 325 323 322 321 322 322 323 323 323 323 323 323 322 322 322 321 321 320 319 318 316 314 313 314 315 313 312 312 313 314 315 315 315 315 315 316 316 317 318 318 317 316 316 316 315 315 314 314 314 318 320 316 313 314 314 313 313
332 331 330 329 328 327 326 326 324 322 322 322 322 322 323 323 324 323 323 323 323 322 322 322 321 321 320 318 316 315 316 315 314 313 313 313 314 314 313 314 315 315 317 317 317 317 317 316 316 316 315 314 313 312 310 313 318 317 313 313 313 313 313
333 332 332 330 329 328 328 327 326 324 323 322 322 322 323 323 323 324 323 323 323 323 322 322 322 322 322 321 320 319 319 318 317 315 314 313 314 313 312 313 314 314 315 316 316 316 315 315 315 315 314 313 312 311 310 311 315 315 313 312 313 312 311
334 333 332 332 330 329 329 328 327 326 326 324 323 323 323 323 323 323 324 323 323 323 322 322 322 322 322 322 322 321 321 321 320 318 316 315 314 313 313 313 313 313 313 314 315 314 313 314 314 314 313 312 311 311 311 311 313 314 314 313 312 312 311
334 333 333 333 332 331 330 329 328 327 327 326 325 324 323 323 323 322 323 323 323 323 323 322 322 322 322 322 322 322 322 322 321 321 320 319 317 315 314 313 313 313 313 313 313 313 312 313 313 313 312 311 311 311 310 311 311 313 314 313 313 313 312
334 334 334 334 333 332 331 330 329 328 328 328 327 326 325 325 324 323 323 322 323 323 323 323 323 322 322 322 322 322 323 322 322 322 321 321 320 319 317 315 314 313 313 312 312 311 312 312 312 313 312 311 311 311 311 311 311 312 313 313 313 313 313
335 335 335 334 334 334 332 331 330 329 328 328 328 327 326 326 325 325 324 323 322 322 322 323 322 322 322 322 322 322 323 323 323 323 322 322 321 320 320 319 317 315 314 313 312 311 311 312 313 313 313 312 311 311 311 311 311 311 312 313 314 313 313
335 334 333 333 333 333 333 332 332 330 329 329 329 329 328 327 326 325 325 324 324 322 322 322 322 322 322 322 322 323 323 323 323 323 323 323 322 321 321 321 320 319 317 315 314 313 312 312 312 313 314 313 311 311 310 311 311 311 312 312 314 314 315
335 334 333 333 333 333 332 332 332 331 330 330 330 330 329 328 327 326 325 325 325 324 323 322 322 322 323 323 323 323 323 323 323 323 323 323 323 323 322 321 321 321 320 318 317 316 315 314 313 313 314 314 313 311 311 311 311 313 314 314 314 315 316
334 334 334 333 333 333 332 331 331 330 330 330 329 330 329 329 328 327 326 326 325 325 325 324 323 323 322 323 323 323 323 323 323 323 324 323 323 323 323 323 322 322 321 321 320 319 319 317 316 315 316 316 317 316 315 315 316 318 319 319 319 318 318
334 334 334 333 333 332 332 331 331 330 330 329 329 329 329 329 329 327 327 326 326 326 325 325 324 323 322 322 322 322 322 323 323 323 323 323 323 322 323 323 322 322 322 322 322 321 321 321 320 320 320 321 321 321 321 321 321 322 322 322 322 321 321
334 333 333 332 332 332 332 331 330 330 330 329 329 329 329 329 328 328 327 327 327 326 325 325 325 323 322 323 323 322 322 322 322 322 322 322 322 322 322 322 322 322 322 322 322 321 321 321 322 322 322 322 322 323 323 324 324 324 323 324 324 323 323
333 332 332 331 331 331 331 331 331 331 331 330 329 329 329 329 329 328 328 327 327 326 325 324 324 323 322 323 323 323 322 322 322 322 322 322 322 322 322 322 322 322 322 322 322 321 321 321 321 321 321 321 322 322 323 324 325 325 324 324 325 324 323
332 331 330 330 330 330 330 331 331 330 330 329 329 329 328 328 328 328 328 327 326 326 326 325 324 324 323 323 323 323 323 323 322 322 323 323 322 322 321 321 321 322 322 322 322 321 321 321 321 321 321 321 321 321 321 322 324 324 325 325 325 325 324
332 332 331 331 331 330 330 330 330 330 329 328 328 328 328 328 327 327 327 327 326 325 325 325 324 324 324 323 323 323 323 323 323 322 323 323 323 323 322 321 321 321 322 322 322 321 321 322 322 322 322 322 322 322 321 321 321 322 323 323 324 324 324
332 332 332 331 330 330 330 330 330 329 329 328 328 327 327 328 327 327 327 327 326 325 325 325 325 324 324 323 323 323 323 323 323 323 323 323 323 324 324 323 322 322 323 323 323 323 322 322 322 322 322 323 322 322 323 323 322 322 322 321 321 321 322
331 331 331 331 330 329 330 330 329 329 329 328 328 328 327 327 327 327 327 327 326 325 325 325 325 324 324 323 323 323 323 323 323 323 323 323 323 323 323 324 323 323 322 323 323 324 323 323 322 321 321 322 323 323 323 323 323 323 322 321 320 319 319
330 330 330 330 330 330 330 329 329 329 329 328 327 327 326 326 326 325 325 325 325 325 324 324 324 324 324 323 323 323 323 322 322 322 322 322 322 322 322 322 322 321 321 322 323 324 323 323 322 320 320 321 322 323 323 323 322 322 322 322 320 320 321
328 328 328 329 329 328 329 328 327 327 326 325 325 325 323 323 322 323 323 323 322 322 322 321 321 322 322 322 323 322 322 321 321 321 321 321 321 321 321 321 322 322 322 322 322 322 322 321 320 320 320 320 321 321 321 322 322 321 322 322 321 322 323
326 326 326 327 327 327 327 326 325 324 323 322 322 321 320 319 319 319 318 317 318 319 317 316 317 318 319 319 320 320 320 320 320 320 321 321 320 320 320 321 322 321 321 321 320 321 321 320 319 319 319 320 320 320 321 321 321 321 321 321 321 321 320
323 324 324 324 324 324 325 325 324 323 322 321 321 320 319 318 317 316 314 313 313 314 313 313 313 314 315 315 316 317 318 318 318 319 319 320 320 320 320 320 320 319 318 318 318 318 318 318 317 317 317 318 318 319 320 320 320 319 319 319 319 318 316
321 321 321 322 322 322 323 323 323 322 321 321 320 319 318 317 316 315 314 313 311 311 311 311 311 312 312 313 313 314 314 314 314 316 317 317 318 317 317 316 316 316 315 315 315 315 315 315 314 314 314 315 316 316 317 317 317 316 316 316 316 315 313
318 318 318 319 320 321 321 322 321 321 320 320 319 319 318 317 316 315 314 314 313 311 309 310 310 310 310 311 311 312 312 312 312 314 314 314 313 313 312 312 312 312 312 312 312 312 312 312 312 312 311 311 312 313 314 314 314 314 313 313 312 311 310
315 315 315 316 317 318 319 320 320 320 320 319 319 318 317 317 316 315 314 314 314 312 310 309 308 308 308 308 309 309 311 311 312 312 312 311 311 310 309 310 310 310 311 311 311 311 311 311 311 310 310 310 310 311 312 312 311 310 309 309 308 307 307
314 314 313 314 314 315 316 317 318 318 318 318 318 318 317 316 315 315 315 314 314 313 312 310 309 307 307 307 308 308 308 309 310 311 310 309 309 308 309 309 309 309 310 310 310 310 310 310 310 309 309 309 309 309 309 309 308 308 307 307 306 306 306
313 313 313 312 311 312 313 314 315 316 316 317 317 317 316 316 315 315 314 313 313 313 313 312 311 309 308 308 308 308 308 308 308 308 309 308 308 308 309 309 309 308 308 309 308 308 308 308 309 309 309 309 308 308 308 307 307 307 306 306 305 305 305
Wind_Speed
11 10 9 7 7 5 4 1 5 2 3 6 2 2 3 4 5 4 5 7 7 7 6 9 11 9 9 12 11 10 10 10 12 12 11 10 8 10 11 12 12 13 14 14 14 9 2 2 5 8 10 11 14 16 18 18 18 19 21 21 19 19 21
11 10 9 10 10 8 5 1 1 1 2 4 3 3 4 4 4 5 5 6 8 7 6 7 9 9 9 11 11 10 9 9 10 8 7 9 9 7 7 9 11 12 13 14 15 12 6 3 3 4 8 11 12 16 19 19 18 19 21 23 22 20 21
9 9 10 13 13 12 8 5 4 4 5 7 6 5 3 3 4 5 5 6 7 8 8 7 8 9 10 11 11 10 9 8 8 6 4 6 9 8 8 9 6 7 9 10 10 10 8 6 5 5 9 9 9 13 20 21 21 20 19 21 24 22 21
11 11 10 10 11 12 11 8 8 9 8 6 6 5 2 3 5 6 6 7 6 7 9 9 7 6 7 9 11 11 9 8 9 9 7 6 7 8 8 11 9 6 7 8 9 12 8 4 4 5 9 13 11 10 18 25 24 20 18 18 21 24 23
9 11 11 10 9 9 12 13 11 11 10 7 6 5 4 5 6 7 7 8 6 5 7 9 8 7 6 6 10 12 10 8 9 10 10 9 8 9 10 11 12 11 11 10 11 13 12 9 6 3 7 13 12 11 12 20 23 19 18 18 18 21 23
9 10 11 12 12 10 11 14 13 13 11 9 9 9 8 8 8 9 8 8 8 6 6 8 8 7 7 7 8 11 11 9 9 11 12 12 10 11 12 12 12 13 14 13 11 11 12 11 9 5 8 11 9 11 15 10 20 20 19 20 19 19 20
10 10 9 10 12 13 13 14 13 13 13 12 11 10 9 8 9 10 9 8 8 8 8 9 10 8 6 7 7 8 9 10 10 11 12 13 13 13 13 12 12 13 14 14 14 14 13 12 10 7 7 10 9 11 15 13 12 14 16 21 22 19 19
12 11 11 10 10 11 11 12 12 11 12 12 11 10 10 9 9 9 8 7 8 9 8 9 10 10 8 9 9 8 8 9 10 11 11 12 13 14 14 14 15 16 16 15 15 15 15 14 14 11 8 6 7 7 8 13 15 14 14 17 20 21 20
12 12 13 11 10 10 8 7 10 11 12 11 9 9 10 9 8 9 8 8 10 9 9 9 9 10 10 11 11 11 10 9 10 12 12 12 13 14 14 14 15 16 17 17 16 16 16 16 16 16 13 7 5 4 4 7 9 11 15 16 16 19 21
13 12 14 14 12 11 9 9 9 9 11 11 10 10 10 8 8 9 8 8 10 10 9 9 9 9 10 11 11 12 12 12 12 12 13 14 15 15 16 16 16 16 16 16 17 17 16 16 15 16 16 13 9 5 3 4 5 7 11 15 15 12 19
15 15 15 15 13 10 11 12 12 10 10 11 12 11 11 10 9 9 9 9 9 10 9 8 9 10 10 11 11 10 11 13 14 14 14 14 15 16 17 18 18 19 18 17 18 18 18 17 16 16 15 15 14 9 6 4 5 10 14 17 18 11 10
18 17 15 14 13 13 12 13 15 15 13 12 13 13 12 12 12 11 12 12 12 12 11 10 10 10 10 11 11 11 11 12 13 15 15 15 15 16 17 18 18 18 18 18 19 19 18 18 18 18 17 17 18 16 13 7 5 11 16 17 19 17 12
19 18 15 14 15 16 14 14 16 19 18 15 15 16 15 15 14 13 13 14 15 15 14 14 14 13 12 12 12 11 11 11 13 14 15 15 15 16 17 17 18 18 18 18 19 19 19 18 17 17 17 19 20 19 20 14 6 10 18 19 20 20 17
21 19 17 17 17 17 16 15 15 17 19 18 18 18 17 16 15 15 15 15 16 16 17 17 16 15 15 14 14 13 12 12 13 14 14 15 15 15 16 17 17 18 18 18 19 18 19 20 18 19 19 19 21 20 21 19 12 10 18 22 22 23 21
20 18 18 18 18 17 17 16 16 15 15 17 19 19 17 17 16 17 17 17 17 17 17 17 18 18 17 16 15 15 14 14 14 14 14 15 15 15 16 17 17 17 17 18 19 19 18 19 18 20 21 21 22 22 20 20 17 11 15 21 21 22 22
14 14 15 16 16 16 16 15 15 15 14 14 16 17 18 18 17 17 18 19 18 18 18 17 18 19 18 18 18 17 16 16 16 16 15 15 16 16 17 18 19 18 17 18 19 19 19 20 19 19 20 20 22 23 22 22 20 16 16 19 20 20 20
8 8 10 12 13 15 18 17 15 15 15 13 14 16 17 18 17 17 18 19 19 19 19 20 20 19 19 19 19 18 18 19 18 18 18 17 17 17 17 19 20 20 20 19 19 20 20 21 21 21 21 21 20 21 21 22 23 21 19 18 20 20 20
7 8 10 11 12 13 16 18 18 17 17 16 16 17 17 17 16 17 16 16 19 20 21 22 22 21 20 20 20 20 19 20 20 20 20 20 20 20 19 19 19 19 21 22 21 22 22 22 22 23 24 23 22 21 21 21 22 23 22 20 20 21 22
10 9 11 12 12 12 13 15 16 17 18 17 17 18 18 17 17 17 18 18 20 21 21 22 23 23 22 21 21 21 21 21 21 21 20 20 21 21 21 21 21 20 21 22 23 23 24 24 23 22 22 23 23 23 23 24 23 22 23 23 21 21 21
10 11 11 11 10 10 10 12 14 15 17 18 18 19 20 20 20 19 19 20 22 23 21 19 19 19 19 21 22 22 22 23 23 23 24 23 21 20 21 21 22 22 22 23 23 23 24 25 25 24 24 23 23 23 24 25 24 22 22 22 22 22 22
8 9 10 9 9 8 9 11 12 14 16 17 19 20 20 21 22 21 19 20 23 24 20 15 12 9 9 14 19 22 23 24 23 22 22 23 22 21 22 23 23 23 22 23 23 23 24 25 25 25 25 23 22 23 23 24 23 22 21 20 20 21 22
7 7 6 7 7 8 9 11 11 12 14 15 17 19 20 20 21 21 22 22 20 18 15 14 16 13 9 12 17 21 23 23 22 21 20 20 21 22 23 24 24 25 25 25 24 24 24 24 24 24 24 23 23 23 24 24 22 21 21 20 20 20 18
6 5 4 5 7 8 10 12 11 12 13 14 14 16 18 19 20 19 21 22 20 17 15 15 17 17 16 17 18 19 20 19 19 20 20 20 21 21 22 22 24 26 28 28 28 27 26 26 26 26 26 26 26 25 25 25 24 23 21 20 20 19 17
8 6 5 4 5 7 9 9 10 10 12 12 13 14 15 16 16 16 17 19 20 20 20 19 19 20 23 23 21 20 20 19 19 19 19 21 21 22 22 24 26 28 28 29 30 30 30 30 31 32 33 32 32 31 29 27 25 25 24 22 22 21 19
12 10 8 7 6 5 6 6 7 8 9 10 10 11 12 14 14 14 14 14 15 16 18 19 20 23 26 27 25 24 23 22 21 20 18 18 19 20 21 22 24 24 25 26 27 28 28 29 30 33 35 36 37 37 37 34 31 29 27 24 22 22 23
13 12 11 9 8 7 6 7 8 7 8 8 9 9 11 14 15 14 13 12 13 15 16 17 18 20 23 25 25 26 26 25 24 23 22 20 20 21 22 23 24 25 25 25 25 26 27 27 28 29 31 35 38 39 40 41 40 39 36 31 26 26 28
12 10 10 9 8 8 9 9 9 9 9 9 9 9 11 13 14 14 14 12 13 15 15 15 15 16 18 20 21 23 25 26 26 26 25 24 23 23 23 24 24 26 27 27 27 26 25 25 25 25 25 29 33 36 38 40 42 44 44 41 38 36 35
13 12 11 10 9 10 10 10 10 12 11 9 8 8 9 11 12 12 11 11 10 11 11 11 13 14 15 17 18 20 20 22 23 25 25 24 23 23 23 23 23 24 27 28 27 25 24 23 23 23 23 24 26 30 34 36 38 40 41 42 41 40 39
14 14 14 13 12 12 12 11 12 12 11 10 10 9 9 10 10 9 9 8 7 6 7 8 9 11 13 14 15 16 16 17 19 21 22 22 22 21 22 23 25 27 28 27 26 26 26 26 26 24 23 23 22 22 25 28 31 33 32 31 31 32 35
14 14 15 14 14 14 14 14 14 13 12 14 14 13 13 12 12 11 10 9 7 6 7 9 10 10 11 13 14 15 16 17 17 18 20 21 20 20 20 20 21 23 24 22 22 23 24 25 24 22 21 23 22 21 21 23 26 29 29 28 28 28 28
14 14 15 14 14 15 15 16 17 17 17 17 17 16 16 15 16 15 15 14 11 8 10 13 12 11 11 12 13 14 15 15 16 18 19 20 20 19 19 17 15 15 14 14 16 17 18 19 19 18 17 17 18 20 19 17 16 17 18 19 20 18 16
15 15 14 14 14 14 14 14 16 18 18 16 16 17 17 18 18 18 20 22 20 16 16 19 18 16 14 13 11 11 11 11 13 14 15 15 14 13 11 9 9 10 13 15 15 16 18 19 19 18 16 14 14 15 14 13 12 11 10 9 9 8 7
16 15 14 12 12 12 13 13 14 15 15 13 13 14 15 16 17 16 18 22 25 23 21 21 21 21 20 18 17 13 10 9 10 11 11 12 12 10 9 8 10 12 13 15 16 16 16 16 16 14 12 10 11 11 12 11 11 9 8 7 6 4 3
16 15 14 13 12 11 12 12 13 13 13 12 12 13 13 13 13 13 14 16 19 22 22 22 21 21 22 22 22 20 17 14 13 12 10 11 11 12 11 12 12 11 11 12 12 12 12 12 11 9 7 6 5 5 6 6 6 5 3 2 1 1 2
15 15 15 15 15 14 12 12 11 10 10 11 11 12 12 11 10 10 11 12 12 14 17 20 20 20 21 23 23 23 20 17 15 14 12 12 12 12 13 15 15 15 14 14 13 13 12 13 12 12 11 11 10 8 6 3 2 3 4 6 7 8 9
14 14 15 15 17 18 15 12 10 8 7 7 8 9 10 9 7 7 8 9 9 9 11 14 15 17 20 22 22 22 20 18 17 15 13 13 13 13 15 16 16 16 16 16 16 16 15 16 16 16 15 14 13 12 11 9 9 10 11 11 12 12 12
13 13 13 14 16 18 19 16 12 9 7 5 4 7 8 6 5 5 7 8 8 7 7 9 10 11 14 17 20 21 20 19 17 16 15 14 14 15 16 15 15 15 15 16 16 16 16 17 17 17 16 16 15 14 14 14 14 13 13 13 12 11 10
Wind_Direction
184 196 191 202 220 236 287 50 111 109 143 147 172 217 222 235 220 225 227 229 241 240 226 226 242 261 251 244 250 240 233 236 233 227 231 234 219 214 221 227 236 247 247 246 254 270 303 243 240 243 245 244 235 217 211 218 218 214 209 204 206 213 219
191 188 189 202 199 200 235 242 100 300 190 192 213 193 213 235 220 220 226 229 236 242 241 228 232 249 257 256 260 262 257 243 237 244 245 244 250 249 248 242 235 252 268 263 261 268 276 283 294 269 244 235 234 223 211 214 221 219 214 209 207 213 220
187 187 204 208 186 178 198 203 199 237 261 245 201 160 188 228 223 223 227 230 230 234 242 248 243 238 245 257 264 269 269 254 247 272 289 262 263 272 295 298 268 252 276 290 296 285 267 250 252 276 271 256 239 223 211 211 219 222 223 218 211 211 217
188 190 208 209 178 173 191 197 203 216 234 239 182 154 182 218 225 225 227 236 233 228 233 247 262 249 239 243 252 265 272 260 256 272 285 278 275 274 284 299 301 290 269 266 284 293 292 271 250 265 282 287 285 248 218 213 215 217 223 225 217 213 214
194 190 197 205 199 197 196 192 202 211 216 230 219 212 222 220 224 222 224 233 237 233 221 230 248 250 246 237 240 255 266 266 259 262 269 272 276 273 272 282 294 299 286 263 257 274 286 291 290 284 284 292 302 303 263 216 207 215 221 225 227 224 221
201 203 200 201 204 209 201 193 198 203 205 223 231 229 231 221 211 212 220 226 230 236 218 215 228 239 246 242 238 246 250 254 252 250 259 266 266 264 265 273 280 283 285 282 271 274 283 284 282 275 281 287 288 309 309 236 199 209 218 222 229 231 229
202 210 217 216 205 198 198 198 203 203 201 213 222 226 233 222 205 205 212 215 218 226 226 222 223 229 236 229 230 239 238 239 240 241 248 252 252 254 256 260 264 267 273 281 282 284 290 286 277 263 262 285 291 293 304 288 242 226 221 219 221 225 231
204 201 208 232 235 218 204 197 202 208 207 210 219 228 236 229 210 200 201 209 216 219 224 227 225 230 235 221 215 222 229 233 233 237 243 242 242 245 247 247 248 252 259 267 273 275 279 277 277 275 254 255 287 283 282 283 277 274 261 238 222 216 220
208 199 194 211 234 238 236 212 199 206 213 218 226 240 249 245 223 210 210 216 219 217 220 226 225 230 237 232 227 227 225 229 234 238 240 241 241 241 244 245 242 245 249 254 259 259 263 265 267 274 273 257 251 264 281 276 269 274 273 267 251 223 212
210 205 199 203 211 214 224 233 223 214 214 217 222 238 254 256 231 221 232 230 218 211 213 226 230 230 233 232 233 236 233 231 232 236 237 238 241 242 244 246 245 247 246 246 250 251 254 259 259 261 267 267 254 233 247 273 277 278 272 279 284 242 206
213 212 206 206 210 206 202 213 224 227 225 218 217 228 242 248 238 225 231 239 232 218 209 219 233 236 235 230 227 234 240 237 233 234 237 237 238 239 242 244 245 247 246 243 245 249 253 257 258 258 257 261 263 255 242 244 266 278 281 287 295 288 224
218 220 214 207 209 213 209 208 212 215 218 220 221 227 235 242 242 231 224 228 234 233 224 221 226 231 235 233 231 236 243 244 239 236 236 237 238 239 240 241 241 242 242 242 242 244 248 250 252 254 252 252 259 263 261 255 250 263 270 279 286 293 289
217 222 222 215 212 216 219 217 212 206 207 214 219 223 228 234 238 238 232 228 229 230 230 226 223 223 227 227 228 235 244 247 246 243 240 240 240 240 240 239 239 241 240 241 243 241 242 245 246 246 245 248 252 256 258 256 257 262 261 266 273 278 283
214 219 221 221 220 219 222 223 217 211 209 212 217 220 224 229 234 237 238 237 235 232 230 229 225 223 225 225 223 227 236 242 245 245 243 242 243 244 244 241 240 242 241 239 241 242 242 242 243 244 243 244 247 251 250 246 244 262 264 264 269 272 273
213 217 222 226 227 224 227 228 224 226 225 218 217 218 221 226 229 233 236 238 243 243 239 235 232 227 223 224 227 228 230 235 241 245 243 240 243 245 246 246 245 244 244 241 238 238 241 241 239 241 242 240 243 246 248 245 240 245 260 263 265 268 270
223 223 226 231 235 235 239 237 227 234 243 235 225 221 224 230 230 231 234 235 240 247 249 246 243 236 227 223 227 231 236 239 240 243 246 244 245 245 244 244 245 244 245 246 243 238 239 242 241 243 244 240 238 239 241 244 243 239 246 257 261 263 263
249 251 239 235 236 238 244 247 239 237 244 248 243 237 238 242 242 239 236 234 236 241 246 249 249 247 240 233 231 233 239 243 242 242 243 246 249 250 247 244 242 241 240 243 248 246 242 242 243 247 252 252 248 244 240 239 241 242 243 248 252 255 260
259 269 261 254 252 250 252 254 252 248 247 250 253 252 250 249 251 253 250 245 244 242 241 242 243 245 247 247 243 240 241 244 246 246 243 243 246 249 250 250 248 243 237 234 238 244 246 245 245 247 250 253 255 256 255 250 246 244 243 246 251 253 255
246 252 259 258 259 264 267 266 263 258 253 252 254 256 256 253 251 253 255 255 253 251 245 241 240 241 243 247 248 247 248 248 248 250 252 252 250 248 249 250 250 247 242 235 233 237 241 244 246 248 249 251 252 253 257 260 259 253 245 244 249 254 254
244 242 249 251 247 256 269 273 272 268 261 256 255 257 259 258 254 251 251 255 258 259 256 249 246 245 243 247 249 248 248 249 248 249 253 257 260 260 258 255 252 249 245 240 237 236 237 240 242 246 249 251 253 252 253 257 260 260 254 247 245 248 252
261 253 255 253 249 256 269 272 270 269 266 263 261 263 263 260 257 254 255 260 263 264 263 260 260 262 255 256 261 260 255 250 248 247 248 251 258 264 267 267 265 262 257 252 247 241 238 237 237 239 243 247 250 252 254 255 256 258 260 257 251 248 247
275 268 269 263 265 274 275 269 265 261 261 260 262 266 266 265 266 264 260 262 266 268 269 271 272 270 266 269 275 276 270 260 252 250 250 252 257 261 265 267 269 270 270 266 262 256 249 243 239 237 239 242 245 248 251 253 254 255 257 258 259 259 259
299 296 303 293 287 285 278 274 272 268 265 262 264 268 269 271 274 269 259 258 264 269 270 272 270 261 256 264 276 281 281 277 268 260 256 256 259 262 264 266 267 268 269 269 268 267 262 257 253 248 245 245 245 245 247 249 250 251 253 253 253 256 259
354 350 344 329 303 286 281 282 280 277 279 277 275 278 283 283 280 275 271 270 272 273 271 269 265 256 252 259 271 282 286 287 284 276 265 258 257 259 262 266 268 266 264 264 265 265 263 261 259 256 254 252 249 248 247 247 247 248 250 251 250 247 248
16 11 4 359 340 313 306 313 306 297 299 301 296 296 300 298 294 297 296 291 288 283 275 272 268 262 259 261 267 277 285 288 287 285 278 269 264 262 264 268 272 272 269 266 265 265 263 261 261 260 258 255 254 254 253 251 250 250 249 249 250 248 247
23 23 23 20 5 352 3 7 351 332 323 323 321 316 303 294 294 303 303 295 293 289 282 280 278 272 270 270 270 272 278 284 286 283 279 277 274 270 268 269 274 280 282 281 278 274 270 267 267 265 261 258 256 257 257 256 255 254 252 250 250 251 251
26 28 32 31 12 5 18 20 7 356 350 339 328 317 306 300 301 305 306 298 292 290 290 293 292 286 280 279 278 277 277 279 282 281 280 278 278 277 275 275 277 279 283 286 288 288 283 279 277 275 270 264 260 258 258 259 258 257 256 255 253 254 255
28 31 36 34 21 20 26 23 15 13 9 0 345 333 332 331 325 323 324 318 305 301 305 302 296 292 287 283 281 282 283 282 281 281 280 278 278 278 278 278 279 282 286 288 288 289 289 288 290 289 284 277 271 266 264 263 262 262 261 259 259 260 262
28 30 34 35 30 29 29 22 17 13 14 21 21 19 22 17 6 360 356 350 343 338 333 321 307 297 292 289 286 286 287 287 285 284 284 282 283 283 282 282 281 281 284 286 285 285 285 287 292 295 293 291 288 279 273 271 270 270 269 268 269 273 276
32 32 35 36 36 35 33 33 33 32 34 41 45 47 48 46 43 37 29 26 29 21 359 344 330 314 300 294 291 292 293 292 290 290 289 289 291 291 293 295 290 283 280 281 284 286 287 288 293 296 295 296 295 290 287 287 282 279 279 277 277 279 279
37 39 40 40 40 39 41 45 48 49 52 53 53 55 56 54 53 51 46 43 45 41 23 10 357 342 325 310 296 292 292 291 290 289 289 289 290 289 288 289 287 284 288 293 294 296 296 297 300 301 298 298 298 296 297 297 291 288 286 279 275 277 279
37 40 43 45 47 45 45 53 56 53 54 56 55 55 58 59 58 56 50 47 47 46 37 28 22 16 7 355 338 318 305 299 299 301 302 302 302 299 294 291 293 299 306 308 306 303 300 299 300 301 298 294 293 290 289 286 284 290 294 283 277 286 299
35 35 34 39 53 59 56 59 64 60 57 59 61 62 63 64 61 58 52 47 44 42 38 33 31 28 25 21 17 12 7 354 337 330 330 335 342 346 346 340 330 321 318 317 315 312 309 307 307 307 305 297 287 280 279 283 287 290 288 280 275 283 311
36 33 25 21 33 57 69 69 69 70 69 70 72 72 71 67 63 60 57 49 42 39 36 34 34 34 33 32 30 31 36 33 24 17 13 14 16 14 15 17 11 3 1 360 355 349 347 348 348 353 1 359 338 313 302 305 311 309 290 264 221 106 54
37 35 27 18 17 30 54 71 72 72 78 82 83 82 79 71 64 61 62 58 51 43 36 33 36 40 39 38 36 36 39 42 44 43 39 37 34 31 34 37 35 32 31 28 29 30 30 33 41 47 45 40 40 43 42 37 41 61 78 85 80 73 66
34 36 32 24 18 20 31 51 66 69 73 80 91 98 92 80 68 61 61 64 67 61 41 29 33 42 45 42 40 38 39 44 50 52 51 48 45 44 46 47 47 47 47 47 49 52 54 57 58 58 55 52 53 60 70 79 81 77 76 75 71 67 61
30 32 34 33 28 23 22 26 31 37 45 50 81 102 99 87 74 68 65 64 69 76 57 25 18 30 41 43 41 39 38 41 49 58 61 59 57 56 57 58 58 56 54 54 56 57 57 57 57 57 59 60 63 69 75 78 78 76 74 71 68 66 63